| time (UTC) | temp C | wind direction | speed KPH | gust KPH | rain 1hr cm | rain 24hr cm | rain mn cm | humidity % | barometer mb |
| 20260901195035 | 36 | 87 | 6.4 | 14.5 | 0.00 | 0.00 | 0.00 | 42 | 1013.7 |
| 20260901194556 | 36 | 135 | 4.8 | 14.5 | 0.00 | 0.00 | 0.00 | 42 | 1013.7 |
| 20260901194022 | 36 | 136 | 3.2 | 14.5 | 0.00 | 0.00 | 0.00 | 42 | 1013.9 |
| 20260901193603 | 37 | 130 | 6.4 | 19.3 | 0.00 | 0.00 | 0.00 | 43 | 1013.8 |
| 20260901193010 | 37 | 64 | 3.2 | 9.7 | 0.00 | 0.00 | 0.00 | 44 | 1013.9 |
| 20260901192550 | 36 | 281 | 1.6 | 9.7 | 0.00 | 0.00 | 0.00 | 44 | 1014.0 |
| 20260901192027 | 36 | 169 | 4.8 | 11.3 | 0.00 | 0.00 | 0.00 | 43 | 1014.1 |
| 20260901191538 | 36 | 93 | 4.8 | 16.1 | 0.00 | 0.00 | 0.00 | 44 | 1014.2 |
| 20260901191020 | 36 | 109 | 6.4 | 24.1 | 0.00 | 0.00 | 0.00 | 45 | 1014.2 |
| 20260901190555 | 36 | 138 | 4.8 | 24.1 | 0.00 | 0.00 | 0.00 | 43 | 1014.3 |
| 20260901190002 | 36 | 115 | 3.2 | 12.9 | 0.00 | 0.00 | 0.00 | 46 | 1014.3 |
| 20260901185542 | 36 | 84 | 3.2 | 8.0 | 0.00 | 0.00 | 0.00 | 45 | 1014.4 |
| 20260901185016 | 36 | 261 | 3.2 | 9.7 | 0.00 | 0.00 | 0.00 | 44 | 1014.5 |
| 20260901184528 | 36 | 146 | 4.8 | 12.9 | 0.00 | 0.00 | 0.00 | 47 | 1014.6 |
| 20260901184004 | 36 | 137 | 1.6 | 12.9 | 0.00 | 0.00 | 0.00 | 46 | 1014.7 |
| 20260901183547 | 36 | 248 | 3.2 | 8.0 | 0.00 | 0.00 | 0.00 | 45 | 1014.7 |
| 20260901183055 | 36 | 360 | 1.6 | 12.9 | 0.00 | 0.00 | 0.00 | 46 | 1014.9 |
| 20260901182533 | 35 | 350 | 3.2 | 12.9 | 0.00 | 0.00 | 0.00 | 46 | 1015.0 |
| 20260901182008 | 35 | 136 | 3.2 | 16.1 | 0.00 | 0.00 | 0.00 | 47 | 1015.0 |
| 20260901181522 | 35 | 161 | 6.4 | 17.7 | 0.00 | 0.00 | 0.00 | 48 | 1015.1 |
| 20260901181100 | 35 | 117 | 6.4 | 16.1 | 0.00 | 0.00 | 0.00 | 46 | 1015.2 |
| 20260901180538 | 35 | 162 | 8.0 | 14.5 | 0.00 | 0.00 | 0.00 | 47 | 1015.2 |
| 20260901180047 | 35 | 71 | 4.8 | 12.9 | 0.00 | 0.00 | 0.00 | 50 | 1015.2 |
| 20260901175524 | 35 | 72 | 1.6 | 8.0 | 0.00 | 0.00 | 0.00 | 47 | 1015.4 |
| 20260901175101 | 34 | 71 | 3.2 | 11.3 | 0.00 | 0.00 | 0.00 | 49 | 1015.4 |
| 20260901174508 | 34 | 105 | 4.8 | 11.3 | 0.00 | 0.00 | 0.00 | 48 | 1015.5 |
| 20260901174049 | 34 | 145 | 4.8 | 14.5 | 0.00 | 0.00 | 0.00 | 51 | 1015.6 |
| 20260901173526 | 34 | 134 | 4.8 | 12.9 | 0.00 | 0.00 | 0.00 | 50 | 1015.6 |
| 20260901173038 | 33 | 250 | 1.6 | 16.1 | 0.00 | 0.00 | 0.00 | 52 | 1015.8 |
| 20260901172514 | 34 | 122 | 8.0 | 16.1 | 0.00 | 0.00 | 0.00 | 49 | 1015.8 |
| 20260901172055 | 34 | 132 | 3.2 | 11.3 | 0.00 | 0.00 | 0.00 | 53 | 1015.9 |
| 20260901171502 | 33 | 68 | 3.2 | 14.5 | 0.00 | 0.00 | 0.00 | 53 | 1016.0 |
| 20260901171045 | 33 | 117 | 4.8 | 14.5 | 0.00 | 0.00 | 0.00 | 51 | 1016.1 |
| 20260901170526 | 33 | 146 | 3.2 | 14.5 | 0.00 | 0.00 | 0.00 | 50 | 1016.1 |
| 20260901170112 | 33 | 40 | 1.6 | 9.7 | 0.00 | 0.00 | 0.00 | 52 | 1016.2 |
| 20260901165516 | 33 | 69 | 3.2 | 12.9 | 0.00 | 0.00 | 0.00 | 54 | 1016.1 |
| 20260901165100 | 33 | 103 | 4.8 | 12.9 | 0.00 | 0.00 | 0.00 | 54 | 1016.1 |
| 20260901164513 | 33 | 59 | 3.2 | 8.0 | 0.00 | 0.00 | 0.00 | 54 | 1016.1 |
| 20260901164051 | 32 | 71 | 3.2 | 9.7 | 0.00 | 0.00 | 0.00 | 57 | 1016.3 |
| 20260901163530 | 32 | 48 | 4.8 | 11.3 | 0.00 | 0.00 | 0.00 | 56 | 1016.3 |
| 20260901163044 | 32 | 153 | 3.2 | 11.3 | 0.00 | 0.00 | 0.00 | 57 | 1016.4 |
| 20260901162518 | 32 | 138 | 1.6 | 12.9 | 0.00 | 0.00 | 0.00 | 58 | 1016.5 |
| 20260901162101 | 32 | 145 | 3.2 | 12.9 | 0.00 | 0.00 | 0.00 | 56 | 1016.6 |
| 20260901161513 | 32 | 223 | 1.6 | 12.9 | 0.00 | 0.00 | 0.00 | 56 | 1016.6 |
| 20260901161053 | 32 | 158 | 3.2 | 12.9 | 0.00 | 0.00 | 0.00 | 56 | 1016.6 |
| 20260901160533 | 32 | 170 | 4.8 | 11.3 | 0.00 | 0.00 | 0.00 | 56 | 1016.6 |
| 20260901160104 | 32 | 176 | 1.6 | 6.4 | 0.00 | 0.00 | 0.00 | 59 | 1016.7 |
| 20260901155543 | 31 | 240 | 1.6 | 4.8 | 0.00 | 0.00 | 0.00 | 60 | 1016.7 |
| 20260901155025 | 31 | 210 | 1.6 | 8.0 | 0.00 | 0.00 | 0.00 | 61 | 1016.6 |
| 20260901154532 | 31 | 142 | 1.6 | 6.4 | 0.00 | 0.00 | 0.00 | 60 | 1016.6 |
| 20260901154008 | 31 | 142 | 1.6 | 8.0 | 0.00 | 0.00 | 0.00 | 61 | 1016.5 |
| 20260901153550 | 31 | 142 | 3.2 | 8.0 | 0.00 | 0.00 | 0.00 | 62 | 1016.5 |
| 20260901153124 | 31 | 142 | 0.0 | 8.0 | 0.00 | 0.00 | 0.00 | 63 | 1016.4 |
| 20260901152537 | 30 | 142 | 1.6 | 8.0 | 0.00 | 0.00 | 0.00 | 63 | 1016.5 |
| 20260901152015 | 30 | 219 | 1.6 | 4.8 | 0.00 | 0.00 | 0.00 | 63 | 1016.4 |
| 20260901151525 | 30 | 219 | 0.0 | 4.8 | 0.00 | 0.00 | 0.00 | 64 | 1016.5 |
| 20260901151002 | 30 | 220 | 1.6 | 4.8 | 0.00 | 0.00 | 0.00 | 66 | 1016.5 |
| 20260901150546 | 30 | 225 | 0.0 | 3.2 | 0.00 | 0.00 | 0.00 | 69 | 1016.5 |
| 20260901150054 | 29 | 225 | 0.0 | 6.4 | 0.00 | 0.00 | 0.00 | 69 | 1016.6 |
| 20260901145530 | 29 | 225 | 0.0 | 6.4 | 0.00 | 0.00 | 0.00 | 70 | 1016.7 |
| 20260901145007 | 28 | 236 | 1.6 | 6.4 | 0.00 | 0.00 | 0.00 | 72 | 1016.7 |
| 20260901144519 | 28 | 170 | 3.2 | 6.4 | 0.00 | 0.00 | 0.00 | 73 | 1016.6 |
| 20260901144102 | 28 | 246 | 0.0 | 3.2 | 0.00 | 0.00 | 0.00 | 75 | 1016.7 |
| 20260901143541 | 28 | 246 | 0.0 | 4.8 | 0.00 | 0.00 | 0.00 | 77 | 1016.7 |
| 20260901143055 | 27 | 246 | 1.6 | 6.4 | 0.00 | 0.00 | 0.00 | 78 | 1016.7 |
| 20260901142534 | 27 | 246 | 1.6 | 6.4 | 0.00 | 0.00 | 0.00 | 79 | 1016.8 |
| 20260901142012 | 27 | 242 | 1.6 | 6.4 | 0.00 | 0.00 | 0.00 | 81 | 1016.8 |
| 20260901141534 | 27 | 242 | 0.0 | 6.4 | 0.00 | 0.00 | 0.00 | 82 | 1016.8 |
| 20260901141001 | 26 | 242 | 3.2 | 6.4 | 0.00 | 0.00 | 0.00 | 83 | 1016.9 |
| 20260901140543 | 26 | 241 | 0.0 | 6.4 | 0.00 | 0.00 | 0.00 | 84 | 1016.9 |
| 20260901140054 | 26 | 239 | 1.6 | 6.4 | 0.00 | 0.00 | 0.00 | 86 | 1016.9 |
| 20260901135531 | 25 | 178 | 0.0 | 3.2 | 0.00 | 0.00 | 0.00 | 87 | 1016.9 |
| 20260901135008 | 25 | 154 | 0.0 | 1.6 | 0.00 | 0.00 | 0.00 | 89 | 1016.9 |
| 20260901134519 | 25 | 153 | 0.0 | 3.2 | 0.00 | 0.00 | 0.00 | 89 | 1016.8 |
| 20260901134059 | 24 | 153 | 0.0 | 3.2 | 0.00 | 0.00 | 0.00 | 89 | 1016.8 |
| 20260901133537 | 24 | 153 | 0.0 | 3.2 | 0.00 | 0.00 | 0.00 | 90 | 1016.9 |
| 20260901133047 | 23 | 153 | 0.0 | 1.6 | 0.00 | 0.00 | 0.00 | 90 | 1016.8 |
| 20260901132524 | 23 | 153 | 0.0 | 3.2 | 0.00 | 0.00 | 0.00 | 90 | 1016.8 |
| 20260901132106 | 23 | 153 | 0.0 | 3.2 | 0.00 | 0.00 | 0.00 | 90 | 1016.8 |
| 20260901131519 | 23 | 153 | 0.0 | 1.6 | 0.00 | 0.00 | 0.00 | 90 | 1016.7 |
| 20260901131053 | 23 | 153 | 0.0 | 0.0 | 0.00 | 0.00 | 0.00 | 90 | 1016.6 |
| 20260901130530 | 23 | 153 | 0.0 | 0.0 | 0.00 | 0.00 | 0.00 | 90 | 1016.5 |
| 20260901130055 | 23 | 153 | 0.0 | 0.0 | 0.00 | 0.00 | 0.00 | 90 | 1016.4 |
| 20260901125517 | 23 | 153 | 0.0 | 0.0 | 0.00 | 0.00 | 0.00 | 90 | 1016.3 |
| 20260901125058 | 22 | 153 | 0.0 | 0.0 | 0.00 | 0.00 | 0.00 | 90 | 1016.2 |
| 20260901124505 | 22 | 153 | 0.0 | 0.0 | 0.00 | 0.00 | 0.00 | 90 | 1016.3 |
| 20260901124047 | 22 | 153 | 0.0 | 0.0 | 0.00 | 0.00 | 0.00 | 90 | 1016.2 |
| 20260901123523 | 23 | 153 | 0.0 | 0.0 | 0.00 | 0.00 | 0.00 | 90 | 1016.2 |
| 20260901123040 | 23 | 153 | 0.0 | 0.0 | 0.00 | 0.00 | 0.00 | 90 | 1016.1 |
| 20260901122511 | 23 | 153 | 0.0 | 0.0 | 0.00 | 0.00 | 0.00 | 90 | 1016.0 |
| 20260901122052 | 23 | 153 | 0.0 | 0.0 | 0.00 | 0.00 | 0.00 | 90 | 1016.0 |
| 20260901121603 | 23 | 153 | 0.0 | 0.0 | 0.00 | 0.00 | 0.00 | 89 | 1015.9 |
| 20260901121039 | 23 | 153 | 0.0 | 0.0 | 0.00 | 0.00 | 0.00 | 89 | 1015.8 |
| 20260901120516 | 23 | 153 | 0.0 | 0.0 | 0.00 | 0.00 | 0.00 | 89 | 1015.7 |
| 20260901120027 | 23 | 153 | 0.0 | 0.0 | 0.00 | 0.00 | 0.00 | 89 | 1015.8 |
| 20260901115503 | 23 | 153 | 0.0 | 0.0 | 0.00 | 0.00 | 0.00 | 89 | 1015.7 |
| 20260901115044 | 23 | 153 | 0.0 | 0.0 | 0.00 | 0.00 | 0.00 | 88 | 1015.8 |
| 20260901114556 | 23 | 153 | 0.0 | 0.0 | 0.00 | 0.00 | 0.00 | 88 | 1015.8 |
| 20260901114035 | 23 | 153 | 0.0 | 0.0 | 0.00 | 0.00 | 0.00 | 88 | 1015.8 |
| 20260901113509 | 23 | 154 | 0.0 | 0.0 | 0.00 | 0.00 | 0.00 | 88 | 1015.8 |
| 20260901113019 | 23 | 153 | 0.0 | 0.0 | 0.00 | 0.00 | 0.00 | 88 | 1015.7 |
| 20260901112600 | 23 | 153 | 0.0 | 0.0 | 0.00 | 0.00 | 0.00 | 88 | 1015.7 |
| 20260901112039 | 23 | 153 | 0.0 | 0.0 | 0.00 | 0.00 | 0.00 | 87 | 1015.7 |
| 20260901111548 | 23 | 154 | 0.0 | 0.0 | 0.00 | 0.00 | 0.00 | 87 | 1015.8 |
| 20260901111025 | 23 | 153 | 0.0 | 0.0 | 0.00 | 0.00 | 0.00 | 87 | 1015.8 |
| 20260901110501 | 24 | 153 | 0.0 | 0.0 | 0.00 | 0.00 | 0.00 | 87 | 1015.7 |
| 20260901110017 | 24 | 153 | 0.0 | 0.0 | 0.00 | 0.00 | 0.00 | 86 | 1015.7 |
| 20260901105553 | 24 | 153 | 0.0 | 0.0 | 0.00 | 0.00 | 0.00 | 86 | 1015.6 |
| 20260901105029 | 24 | 153 | 0.0 | 0.0 | 0.00 | 0.00 | 0.00 | 85 | 1015.6 |
| 20260901104537 | 24 | 153 | 0.0 | 0.0 | 0.00 | 0.00 | 0.00 | 85 | 1015.6 |
| 20260901104015 | 24 | 153 | 0.0 | 0.0 | 0.00 | 0.00 | 0.00 | 85 | 1015.7 |
| 20260901103556 | 25 | 153 | 0.0 | 0.0 | 0.00 | 0.00 | 0.00 | 85 | 1015.7 |
| 20260901103004 | 25 | 153 | 0.0 | 0.0 | 0.00 | 0.00 | 0.00 | 85 | 1015.7 |
| 20260901102547 | 25 | 153 | 0.0 | 0.0 | 0.00 | 0.00 | 0.00 | 84 | 1015.6 |
| 20260901102022 | 25 | 153 | 0.0 | 1.6 | 0.00 | 0.00 | 0.00 | 84 | 1015.5 |
| 20260901101541 | 25 | 153 | 0.0 | 1.6 | 0.00 | 0.00 | 0.00 | 85 | 1015.5 |
| 20260901101010 | 25 | 153 | 0.0 | 1.6 | 0.00 | 0.00 | 0.00 | 84 | 1015.4 |
| 20260901100551 | 25 | 153 | 0.0 | 1.6 | 0.00 | 0.00 | 0.00 | 84 | 1015.3 |
| 20260901100111 | 25 | 153 | 0.0 | 1.6 | 0.00 | 0.00 | 0.00 | 84 | 1015.4 |
| 20260901095539 | 25 | 153 | 0.0 | 0.0 | 0.00 | 0.00 | 0.00 | 83 | 1015.4 |
| 20260901095016 | 25 | 153 | 0.0 | 0.0 | 0.00 | 0.00 | 0.00 | 83 | 1015.5 |
| 20260901094529 | 25 | 153 | 0.0 | 0.0 | 0.00 | 0.00 | 0.00 | 83 | 1015.5 |
| 20260901094004 | 25 | 153 | 0.0 | 0.0 | 0.00 | 0.00 | 0.00 | 82 | 1015.4 |
| 20260901093544 | 25 | 153 | 0.0 | 0.0 | 0.00 | 0.00 | 0.00 | 81 | 1015.6 |
| 20260901093056 | 25 | 153 | 0.0 | 0.0 | 0.00 | 0.00 | 0.00 | 81 | 1015.6 |
| 20260901092533 | 25 | 153 | 0.0 | 1.6 | 0.00 | 0.00 | 0.00 | 80 | 1015.6 |
| 20260901092012 | 25 | 153 | 0.0 | 4.8 | 0.00 | 0.00 | 0.00 | 80 | 1015.6 |
| 20260901091520 | 25 | 153 | 0.0 | 4.8 | 0.00 | 0.00 | 0.00 | 81 | 1015.6 |
| 20260901091101 | 25 | 153 | 1.6 | 3.2 | 0.00 | 0.00 | 0.00 | 80 | 1015.6 |
| 20260901090538 | 25 | 149 | 0.0 | 3.2 | 0.00 | 0.00 | 0.00 | 79 | 1015.5 |
| 20260901090049 | 26 | 149 | 0.0 | 0.0 | 0.00 | 0.00 | 0.00 | 78 | 1015.5 |
| 20260901085525 | 26 | 149 | 0.0 | 0.0 | 0.00 | 0.00 | 0.00 | 78 | 1015.6 |
| 20260901085002 | 26 | 149 | 0.0 | 1.6 | 0.00 | 0.00 | 0.00 | 77 | 1015.5 |
| 20260901084513 | 26 | 149 | 0.0 | 4.8 | 0.00 | 0.00 | 0.00 | 77 | 1015.5 |
| 20260901084054 | 26 | 149 | 1.6 | 8.0 | 0.00 | 0.00 | 0.00 | 77 | 1015.3 |
| 20260901083531 | 26 | 149 | 3.2 | 8.0 | 0.00 | 0.00 | 0.00 | 77 | 1015.2 |
| 20260901083048 | 26 | 150 | 1.6 | 3.2 | 0.00 | 0.00 | 0.00 | 77 | 1015.3 |
| 20260901082519 | 26 | 150 | 0.0 | 3.2 | 0.00 | 0.00 | 0.00 | 77 | 1015.3 |
| 20260901082102 | 26 | 150 | 0.0 | 1.6 | 0.00 | 0.00 | 0.00 | 76 | 1015.3 |
| 20260901081505 | 26 | 150 | 0.0 | 1.6 | 0.00 | 0.00 | 0.00 | 76 | 1015.3 |
| 20260901081047 | 26 | 150 | 0.0 | 4.8 | 0.00 | 0.00 | 0.00 | 76 | 1015.3 |
| 20260901080525 | 26 | 150 | 0.0 | 4.8 | 0.00 | 0.00 | 0.00 | 75 | 1015.3 |
| 20260901080035 | 26 | 150 | 0.0 | 3.2 | 0.00 | 0.00 | 0.00 | 75 | 1015.3 |
| 20260901075511 | 27 | 150 | 0.0 | 3.2 | 0.00 | 0.00 | 0.00 | 75 | 1015.4 |
| 20260901075053 | 27 | 150 | 1.6 | 4.8 | 0.00 | 0.00 | 0.00 | 75 | 1015.5 |
| 20260901074603 | 27 | 150 | 1.6 | 4.8 | 0.00 | 0.00 | 0.00 | 74 | 1015.4 |
| 20260901074042 | 27 | 150 | 0.0 | 8.0 | 0.00 | 0.00 | 0.00 | 74 | 1015.4 |
| 20260901073516 | 27 | 150 | 1.6 | 4.8 | 0.00 | 0.00 | 0.00 | 74 | 1015.5 |
| 20260901073036 | 27 | 150 | 3.2 | 6.4 | 0.00 | 0.00 | 0.00 | 74 | 1015.5 |
| 20260901072504 | 27 | 153 | 1.6 | 4.8 | 0.00 | 0.00 | 0.00 | 74 | 1015.5 |
| 20260901072045 | 27 | 153 | 1.6 | 8.0 | 0.00 | 0.00 | 0.00 | 74 | 1015.5 |
| 20260901071556 | 27 | 153 | 1.6 | 8.0 | 0.00 | 0.00 | 0.00 | 73 | 1015.6 |
| 20260901071033 | 27 | 153 | 1.6 | 4.8 | 0.00 | 0.00 | 0.00 | 73 | 1015.5 |
| 20260901070509 | 27 | 153 | 1.6 | 4.8 | 0.00 | 0.00 | 0.00 | 72 | 1015.6 |
| 20260901070023 | 27 | 153 | 1.6 | 8.0 | 0.00 | 0.00 | 0.00 | 72 | 1015.7 |
| 20260901065604 | 27 | 153 | 1.6 | 8.0 | 0.00 | 0.00 | 0.00 | 72 | 1015.7 |
| 20260901065038 | 27 | 150 | 1.6 | 8.0 | 0.00 | 0.00 | 0.00 | 71 | 1015.6 |
| 20260901064549 | 28 | 135 | 3.2 | 8.0 | 0.00 | 0.00 | 0.00 | 71 | 1015.5 |
| 20260901064026 | 28 | 144 | 3.2 | 8.0 | 0.00 | 0.00 | 0.00 | 71 | 1015.5 |
| 20260901063502 | 28 | 142 | 3.2 | 12.9 | 0.00 | 0.00 | 0.00 | 70 | 1015.4 |
| 20260901063015 | 28 | 145 | 4.8 | 12.9 | 0.00 | 0.00 | 0.00 | 70 | 1015.3 |
| 20260901062555 | 28 | 150 | 3.2 | 11.3 | 0.00 | 0.00 | 0.00 | 70 | 1015.2 |
| 20260901062033 | 28 | 185 | 3.2 | 11.3 | 0.00 | 0.00 | 0.00 | 70 | 1015.2 |
| 20260901061551 | 28 | 166 | 4.8 | 11.3 | 0.00 | 0.00 | 0.00 | 69 | 1015.2 |
| 20260901061019 | 28 | 152 | 3.2 | 11.3 | 0.00 | 0.00 | 0.00 | 69 | 1015.2 |
| 20260901060603 | 28 | 145 | 3.2 | 11.3 | 0.00 | 0.00 | 0.00 | 68 | 1015.2 |
| 20260901060009 | 28 | 161 | 4.8 | 11.3 | 0.00 | 0.00 | 0.00 | 68 | 1015.1 |
| 20260901055550 | 28 | 183 | 4.8 | 12.9 | 0.00 | 0.00 | 0.00 | 68 | 1015.1 |
| 20260901055024 | 28 | 148 | 6.4 | 12.9 | 0.00 | 0.00 | 0.00 | 67 | 1015.1 |
| 20260901054536 | 28 | 154 | 3.2 | 11.3 | 0.00 | 0.00 | 0.00 | 67 | 1015.1 |
| 20260901054011 | 28 | 152 | 3.2 | 12.9 | 0.00 | 0.00 | 0.00 | 67 | 1015.0 |
| 20260901053553 | 28 | 157 | 4.8 | 12.9 | 0.00 | 0.00 | 0.00 | 66 | 1015.0 |
| 20260901053124 | 28 | 142 | 3.2 | 9.7 | 0.00 | 0.00 | 0.00 | 66 | 1014.9 |
| 20260901052540 | 28 | 162 | 4.8 | 12.9 | 0.00 | 0.00 | 0.00 | 66 | 1014.9 |
| 20260901052016 | 28 | 148 | 6.4 | 12.9 | 0.00 | 0.00 | 0.00 | 65 | 1014.8 |
| 20260901051531 | 29 | 173 | 3.2 | 14.5 | 0.00 | 0.00 | 0.00 | 65 | 1014.8 |
| 20260901051003 | 29 | 145 | 6.4 | 14.5 | 0.00 | 0.00 | 0.00 | 65 | 1014.8 |
| 20260901050544 | 29 | 159 | 6.4 | 12.9 | 0.00 | 0.00 | 0.00 | 64 | 1014.8 |
| 20260901050058 | 29 | 175 | 6.4 | 12.9 | 0.00 | 0.00 | 0.00 | 64 | 1014.8 |
| 20260901045532 | 29 | 140 | 4.8 | 19.3 | 0.00 | 0.00 | 0.00 | 63 | 1014.8 |
| 20260901045009 | 29 | 138 | 6.4 | 12.9 | 0.00 | 0.00 | 0.00 | 63 | 1014.7 |
| 20260901044520 | 29 | 195 | 6.4 | 12.9 | 0.00 | 0.00 | 0.00 | 63 | 1014.7 |
| 20260901044101 | 29 | 150 | 4.8 | 12.9 | 0.00 | 0.00 | 0.00 | 63 | 1014.7 |
| 20260901043538 | 30 | 182 | 6.4 | 19.3 | 0.00 | 0.00 | 0.00 | 63 | 1014.7 |
| 20260901043049 | 30 | 142 | 4.8 | 19.3 | 0.00 | 0.00 | 0.00 | 63 | 1014.7 |
| 20260901042525 | 30 | 147 | 6.4 | 12.9 | 0.00 | 0.00 | 0.00 | 62 | 1014.6 |
| 20260901042002 | 30 | 175 | 3.2 | 14.5 | 0.00 | 0.00 | 0.00 | 62 | 1014.6 |
| 20260901041512 | 30 | 155 | 6.4 | 14.5 | 0.00 | 0.00 | 0.00 | 61 | 1014.6 |
| 20260901041053 | 30 | 163 | 6.4 | 22.5 | 0.00 | 0.00 | 0.00 | 61 | 1014.5 |
| 20260901040530 | 30 | 141 | 6.4 | 22.5 | 0.00 | 0.00 | 0.00 | 60 | 1014.6 |
| 20260901040041 | 30 | 154 | 6.4 | 19.3 | 0.00 | 0.00 | 0.00 | 60 | 1014.5 |
| 20260901035521 | 30 | 165 | 8.0 | 19.3 | 0.00 | 0.00 | 0.00 | 59 | 1014.6 |
| 20260901035058 | 30 | 170 | 8.0 | 19.3 | 0.00 | 0.00 | 0.00 | 59 | 1014.6 |
| 20260901034510 | 30 | 139 | 8.0 | 17.7 | 0.00 | 0.00 | 0.00 | 59 | 1014.5 |
| 20260901034043 | 29 | 150 | 6.4 | 16.1 | 0.00 | 0.00 | 0.00 | 59 | 1014.5 |
| 20260901033518 | 28 | 130 | 4.8 | 14.5 | 0.00 | 0.00 | 0.00 | 58 | 1014.5 |
| 20260901033029 | 28 | 154 | 3.2 | 9.7 | 0.00 | 0.00 | 0.00 | 57 | 1014.4 |
| 20260901032506 | 27 | 86 | 1.6 | 4.8 | 0.00 | 0.00 | 0.00 | 57 | 1014.3 |
| 20260901032047 | 27 | 86 | 1.6 | 4.8 | 0.00 | 0.00 | 0.00 | 58 | 1014.2 |
| 20260901031610 | 27 | 84 | 0.0 | 0.0 | 0.00 | 0.00 | 0.00 | 58 | 1014.2 |
| 20260901031034 | 27 | 84 | 0.0 | 0.0 | 0.00 | 0.00 | 0.00 | 59 | 1014.2 |
| 20260901030511 | 27 | 84 | 0.0 | 0.0 | 0.00 | 0.00 | 0.00 | 59 | 1014.1 |
| 20260901030024 | 27 | 84 | 0.0 | 0.0 | 0.00 | 0.00 | 0.00 | 58 | 1014.1 |
| 20260901025603 | 27 | 84 | 0.0 | 0.0 | 0.00 | 0.00 | 0.00 | 59 | 1013.9 |
| 20260901025040 | 27 | 84 | 0.0 | 0.0 | 0.00 | 0.00 | 0.00 | 59 | 1013.8 |
| 20260901024551 | 28 | 84 | 0.0 | 0.0 | 0.00 | 0.00 | 0.00 | 58 | 1013.8 |
| 20260901024029 | 28 | 84 | 0.0 | 0.0 | 0.00 | 0.00 | 0.00 | 57 | 1013.8 |
| 20260901023503 | 28 | 84 | 0.0 | 0.0 | 0.00 | 0.00 | 0.00 | 58 | 1013.7 |
| 20260901023014 | 28 | 84 | 0.0 | 0.0 | 0.00 | 0.00 | 0.00 | 57 | 1013.6 |
| 20260901022556 | 28 | 84 | 0.0 | 0.0 | 0.00 | 0.00 | 0.00 | 56 | 1013.5 |
| 20260901022034 | 29 | 84 | 0.0 | 0.0 | 0.00 | 0.00 | 0.00 | 55 | 1013.5 |
| 20260901021543 | 29 | 84 | 0.0 | 0.0 | 0.00 | 0.00 | 0.00 | 55 | 1013.4 |
| 20260901021020 | 30 | 84 | 0.0 | 0.0 | 0.00 | 0.00 | 0.00 | 53 | 1013.4 |
| 20260901020601 | 30 | 84 | 0.0 | 0.0 | 0.00 | 0.00 | 0.00 | 52 | 1013.3 |
| 20260901020008 | 30 | 84 | 0.0 | 0.0 | 0.00 | 0.00 | 0.00 | 51 | 1013.3 |
| 20260901015549 | 30 | 84 | 0.0 | 0.0 | 0.00 | 0.00 | 0.00 | 50 | 1013.2 |
| 20260901015025 | 31 | 84 | 0.0 | 0.0 | 0.00 | 0.00 | 0.00 | 49 | 1013.1 |
| 20260901014536 | 31 | 84 | 0.0 | 0.0 | 0.00 | 0.00 | 0.00 | 48 | 1013.0 |
| 20260901014015 | 31 | 84 | 0.0 | 0.0 | 0.00 | 0.00 | 0.00 | 46 | 1013.0 |
| 20260901013555 | 31 | 84 | 0.0 | 0.0 | 0.00 | 0.00 | 0.00 | 46 | 1013.0 |
| 20260901013001 | 32 | 84 | 0.0 | 0.0 | 0.00 | 0.00 | 0.00 | 44 | 1013.0 |
| 20260901012542 | 32 | 84 | 0.0 | 0.0 | 0.00 | 0.00 | 0.00 | 44 | 1013.0 |
| 20260901012022 | 32 | 84 | 0.0 | 1.6 | 0.00 | 0.00 | 0.00 | 43 | 1012.9 |
| 20260901011530 | 32 | 84 | 0.0 | 1.6 | 0.00 | 0.00 | 0.00 | 43 | 1012.9 |
| 20260901011009 | 33 | 84 | 0.0 | 3.2 | 0.00 | 0.00 | 0.00 | 42 | 1012.9 |
| 20260901010547 | 33 | 84 | 0.0 | 4.8 | 0.00 | 0.00 | 0.00 | 41 | 1012.9 |
| 20260901010058 | 33 | 84 | 0.0 | 6.4 | 0.00 | 0.00 | 0.00 | 41 | 1012.8 |
| 20260901005537 | 33 | 113 | 1.6 | 6.4 | 0.00 | 0.00 | 0.00 | 41 | 1012.8 |
| 20260901005013 | 33 | 134 | 1.6 | 6.4 | 0.00 | 0.00 | 0.00 | 40 | 1012.7 |
| 20260901004522 | 33 | 134 | 1.6 | 6.4 | 0.00 | 0.00 | 0.00 | 40 | 1012.8 |
| 20260901004107 | 34 | 86 | 1.6 | 14.5 | 0.00 | 0.00 | 0.00 | 40 | 1012.8 |
| 20260901003540 | 34 | 88 | 1.6 | 14.5 | 0.00 | 0.00 | 0.00 | 40 | 1012.9 |
| 20260901003052 | 34 | 126 | 1.6 | 6.4 | 0.00 | 0.00 | 0.00 | 40 | 1012.8 |
| 20260901002528 | 35 | 126 | 0.0 | 8.0 | 0.00 | 0.00 | 0.00 | 39 | 1012.7 |
| 20260901002007 | 35 | 126 | 3.2 | 12.9 | 0.00 | 0.00 | 0.00 | 39 | 1012.7 |
| 20260901001523 | 35 | 125 | 1.6 | 9.7 | 0.00 | 0.00 | 0.00 | 39 | 1012.7 |
| 20260901001056 | 35 | 125 | 1.6 | 6.4 | 0.00 | 0.00 | 0.00 | 38 | 1012.6 |
| 20260901000534 | 36 | 125 | 0.0 | 6.4 | 0.00 | 0.00 | 0.00 | 38 | 1012.5 |
| 20260901000044 | 36 | 125 | 0.0 | 6.4 | 0.00 | 0.00 | 0.00 | 38 | 1012.6 |
| 20260831235520 | 36 | 126 | 3.2 | 9.7 | 0.00 | 0.00 | 0.00 | 37 | 1012.6 |
| 20260831235101 | 36 | 117 | 1.6 | 6.4 | 0.00 | 0.00 | 0.00 | 38 | 1012.6 |
| 20260831234508 | 36 | 115 | 1.6 | 12.9 | 0.00 | 0.00 | 0.00 | 37 | 1012.6 |
| 20260831234049 | 36 | 67 | 1.6 | 12.9 | 0.00 | 0.00 | 0.00 | 37 | 1012.6 |
| 20260831233529 | 36 | 107 | 1.6 | 9.7 | 0.00 | 0.00 | 0.00 | 37 | 1012.6 |
| 20260831233037 | 36 | 67 | 4.8 | 9.7 | 0.00 | 0.00 | 0.00 | 37 | 1012.6 |
| 20260831232513 | 36 | 96 | 3.2 | 11.3 | 0.00 | 0.00 | 0.00 | 36 | 1012.7 |
| 20260831232055 | 36 | 132 | 3.2 | 9.7 | 0.00 | 0.00 | 0.00 | 36 | 1012.6 |
| 20260831231504 | 36 | 80 | 3.2 | 12.9 | 0.00 | 0.00 | 0.00 | 37 | 1012.6 |
| 20260831231047 | 36 | 121 | 3.2 | 12.9 | 0.00 | 0.00 | 0.00 | 37 | 1012.6 |
| 20260831230526 | 36 | 127 | 3.2 | 14.5 | 0.00 | 0.00 | 0.00 | 35 | 1012.7 |
| 20260831230053 | 37 | 136 | 4.8 | 11.3 | 0.00 | 0.00 | 0.00 | 36 | 1012.7 |
| 20260831225515 | 36 | 121 | 1.6 | 16.1 | 0.00 | 0.00 | 0.00 | 36 | 1012.7 |
| 20260831225103 | 37 | 132 | 6.4 | 16.1 | 0.00 | 0.00 | 0.00 | 34 | 1012.6 |
| 20260831224506 | 36 | 137 | 3.2 | 14.5 | 0.00 | 0.00 | 0.00 | 36 | 1012.7 |
| 20260831224048 | 36 | 142 | 4.8 | 14.5 | 0.00 | 0.00 | 0.00 | 35 | 1012.7 |
| 20260831223525 | 36 | 77 | 4.8 | 11.3 | 0.00 | 0.00 | 0.00 | 35 | 1012.8 |
| 20260831223036 | 36 | 135 | 3.2 | 14.5 | 0.00 | 0.00 | 0.00 | 36 | 1012.8 |
| 20260831222511 | 36 | 152 | 1.6 | 14.5 | 0.00 | 0.00 | 0.00 | 37 | 1012.9 |
| 20260831222053 | 36 | 144 | 1.6 | 14.5 | 0.00 | 0.00 | 0.00 | 37 | 1012.9 |
| 20260831221629 | 36 | 126 | 6.4 | 14.5 | 0.00 | 0.00 | 0.00 | 38 | 1012.9 |
| 20260831221040 | 36 | 132 | 9.7 | 16.1 | 0.00 | 0.00 | 0.00 | 36 | 1013.0 |
| 20260831220517 | 36 | 152 | 6.4 | 16.1 | 0.00 | 0.00 | 0.00 | 34 | 1013.0 |
| 20260831220030 | 36 | 78 | 3.2 | 14.5 | 0.00 | 0.00 | 0.00 | 37 | 1013.0 |
| 20260831215508 | 36 | 65 | 4.8 | 14.5 | 0.00 | 0.00 | 0.00 | 38 | 1013.1 |
| 20260831215046 | 36 | 154 | 4.8 | 12.9 | 0.00 | 0.00 | 0.00 | 37 | 1013.1 |
| 20260831214558 | 36 | 152 | 3.2 | 11.3 | 0.00 | 0.00 | 0.00 | 39 | 1013.2 |
| 20260831214033 | 36 | 139 | 3.2 | 14.5 | 0.00 | 0.00 | 0.00 | 39 | 1013.2 |
| 20260831213510 | 36 | 61 | 6.4 | 14.5 | 0.00 | 0.00 | 0.00 | 39 | 1013.3 |
| 20260831213021 | 36 | 130 | 3.2 | 11.3 | 0.00 | 0.00 | 0.00 | 40 | 1013.3 |
| 20260831212604 | 36 | 165 | 3.2 | 11.3 | 0.00 | 0.00 | 0.00 | 40 | 1013.3 |
| 20260831212039 | 35 | 69 | 1.6 | 12.9 | 0.00 | 0.00 | 0.00 | 42 | 1013.5 |
| 20260831211601 | 36 | 122 | 4.8 | 12.9 | 0.00 | 0.00 | 0.00 | 39 | 1013.5 |
| 20260831211026 | 36 | 133 | 4.8 | 16.1 | 0.00 | 0.00 | 0.00 | 38 | 1013.5 |
| 20260831210502 | 36 | 100 | 4.8 | 16.1 | 0.00 | 0.00 | 0.00 | 38 | 1013.6 |
| 20260831210013 | 36 | 93 | 4.8 | 14.5 | 0.00 | 0.00 | 0.00 | 38 | 1013.7 |
| 20260831205555 | 36 | 82 | 4.8 | 19.3 | 0.00 | 0.00 | 0.00 | 38 | 1013.8 |
| 20260831205032 | 36 | 114 | 8.0 | 19.3 | 0.00 | 0.00 | 0.00 | 39 | 1013.9 |
| 20260831204543 | 36 | 123 | 1.6 | 14.5 | 0.00 | 0.00 | 0.00 | 39 | 1014.0 |
| 20260831204019 | 36 | 105 | 4.8 | 16.1 | 0.00 | 0.00 | 0.00 | 39 | 1014.1 |
| 20260831203601 | 36 | 130 | 4.8 | 16.1 | 0.00 | 0.00 | 0.00 | 40 | 1014.2 |
| 20260831203009 | 36 | 137 | 4.8 | 17.7 | 0.00 | 0.00 | 0.00 | 39 | 1014.3 |
| 20260831202548 | 36 | 166 | 8.0 | 17.7 | 0.00 | 0.00 | 0.00 | 40 | 1014.4 |
| 20260831202025 | 35 | 132 | 9.7 | 19.3 | 0.00 | 0.00 | 0.00 | 42 | 1014.5 |
| 20260831201538 | 35 | 139 | 6.4 | 19.3 | 0.00 | 0.00 | 0.00 | 42 | 1014.5 |
| 20260831201016 | 36 | 136 | 6.4 | 16.1 | 0.00 | 0.00 | 0.00 | 40 | 1014.6 |
| 20260831200555 | 36 | 137 | 6.4 | 17.7 | 0.00 | 0.00 | 0.00 | 40 | 1014.6 |
| 20260831200001 | 36 | 153 | 4.8 | 16.1 | 0.00 | 0.00 | 0.00 | 41 | 1014.7 |
| 20260831195543 | 36 | 164 | 4.8 | 17.7 | 0.00 | 0.00 | 0.00 | 41 | 1014.7 |